Regional Weather Roundup
Issued by NWS Sioux Falls, SD

Home | Current Version | Previous Version | Graphics & Text | Print | Product List | Glossary On
Versions: 1 2 3 4 5 6 7 8 9 10 11 12 13 14 15 16 17 18 19 20 21 22 23 24 25 26 27 28 29 30 31 32 33 34 35 36 37 38 39 40 41 42 43 44 45 46 47 48 49 50
000
ASUS43 KFSD 260002
RWRFSD

WEATHER ROUNDUP FOR SE SOUTH DAKOTA/SW MINNESOTA/NW IOWA
NATIONAL WEATHER SERVICE SIOUX FALLS SD
600 PM CST SAT FEB 25 2017

NOTE: "FAIR" INDICATES FEW OR NO CLOUDS BELOW 12,000 FEET WITH NO
SIGNIFICANT WEATHER AND OR OBSTRUCTIONS TO VISIBILITY.


SDZ038>040-050-052>070-260100-
SOUTHEAST SOUTH DAKOTA

CITY           SKY/WX    TMP DP  RH WIND       PRES   REMARKS
BROOKINGS      PTCLDY    28  19  69 S15G23    29.80F WCI  16
CHAMBERLAIN    MOCLDY    37  25  61 W6        29.78F
6HR MIN TEMP:  33; 6HR MAX TEMP:  40;

HURON          CLOUDY    33  22  63 S9G20     29.79S WCI  25
6HR MIN TEMP:  33; 6HR MAX TEMP:  40;

MADISON        FAIR      25  23  93 S14       29.81F WCI  13
MITCHELL       CLOUDY    30  21  69 SW13      29.83F WCI  20
6HR MIN TEMP:  29; 6HR MAX TEMP:  33;

SIOUX FALLS    MOCLDY    27  18  69 S13       29.85F WCI  16
6HR MIN TEMP:  24; 6HR MAX TEMP:  28;

WINNER         FAIR      33  23  66 SW12      29.79F WCI  24
YANKTON        PTCLDY    28  18  64 S9        29.86F WCI  20
$$

MNZ071-072-080-081-089-090-097-098-260100-
SOUTHWEST MINNESOTA

CITY           SKY/WX    TMP DP  RH WIND       PRES   REMARKS
FAIRMONT       CLOUDY    24  18  77 S16       29.92F WCI  11
JACKSON        CLOUDY    27  18  69 S16       29.89F WCI  14
LUVERNE        PTCLDY    25  18  74 S10       29.87F WCI  15
MARSHALL       CLOUDY    30  19  63 SW17      29.83F WCI  18
6HR MIN TEMP:  30; 6HR MAX TEMP:  35;

MONTEVIDEO     PTCLDY    30  19  64 SW10      29.83F WCI  21
PIPESTONE      PTCLDY    27  16  63 SW17      29.83S WCI  14
REDWOOD FALLS  CLOUDY    30  17  58 SW13      29.85F WCI  20
TRACY          CLOUDY    29  20  69 SW12      29.84F WCI  20
WINDOM         CLOUDY    27  19  74 S14G20    29.87F WCI  15
WORTHINGTON    CLOUDY    25  17  72 S18       29.86F WCI  11
$$

IAZ001>003-012>014-020>022-031-032-NEZ013-014-SDZ071-260100-
NORTHWEST IOWA

CITY           SKY/WX    TMP DP  RH WIND       PRES   REMARKS
CHEROKEE       CLOUDY    25  15  67 S8        29.94S WCI  16
DENISON        CLOUDY    27  16  63 S8        29.93F WCI  18
ESTHERVILLE    CLOUDY    24  17  74 S13       29.91F WCI  12
LE MARS        PTCLDY    27  18  69 S13       29.92F WCI  16
SHELDON        PTCLDY    25  21  86 S16       29.88F WCI  12
SIOUX CITY     CLEAR     28  17  63 S10       29.94F WCI  19
6HR MIN TEMP:  26; 6HR MAX TEMP:  30;

SPENCER        PTCLDY    24  15  68 S13       29.91F WCI  12
6HR MIN TEMP:  23; 6HR MAX TEMP:  27;

STORM LAKE     MOCLDY    23  18  80 S14       29.92F WCI  11
$$

ABBREVIATIONS USED IN REMARKS
   TC - TEMPERATURE IN CELSIUS
  WCI - WIND CHILL INDEX
   HX - HEAT INDEX
  VSB - VISIBILITY





USA.gov is the U.S. government's official web portal to all federal, state and local government web resources and services.